FW5282 Weather Reports


Display with metric or nautical units.
time (UTC)temp
F
wind
direction
speed
MPH
gust
MPH
rain 1hr
in
rain 24hr
in
rain mn
in
humidity
%
barometer
mb
20260905234531 61 355 1.0 1.0 0.00 0.00 0.00 70 1023.6
20260905234038 61 347 0.0 1.0 0.00 0.00 0.00 70 1023.6
20260905233533 61 350 0.0 1.0 0.00 0.00 0.00 69 1023.6
20260905233045 61 349 0.0 1.0 0.00 0.00 0.00 69 1023.6
20260905232535 61 350 1.0 1.0 0.00 0.00 0.00 68 1023.6
20260905232031 61 5 0.0 1.0 0.00 0.00 0.00 68 1023.5
20260905231541 61 11 1.0 1.0 0.00 0.00 0.00 69 1023.6
20260905231034 61 297 0.0 1.0 0.00 0.00 0.00 69 1023.6
20260905230547 61 296 1.0 1.0 0.00 0.00 0.00 69 1023.6
20260905230036 61 342 0.0 1.0 0.00 0.00 0.00 68 1023.6
20260905225551 62 324 0.0 1.0 0.00 0.00 0.00 68 1023.5
20260905225028 62 344 0.0 1.0 0.00 0.00 0.00 67 1023.5
20260905224544 62 346 0.0 1.0 0.00 0.00 0.00 66 1023.5
20260905224035 62 355 0.0 1.0 0.00 0.00 0.00 66 1023.5
20260905223531 62 344 0.0 1.0 0.00 0.00 0.00 65 1023.5
20260905223106 62 336 0.0 1.0 0.00 0.00 0.00 65 1023.4
20260905222539 62 341 0.0 0.0 0.00 0.00 0.00 65 1023.4
20260905222105 62 340 0.0 1.0 0.00 0.00 0.00 64 1023.4
20260905221537 63 340 0.0 1.0 0.00 0.00 0.00 65 1023.3
20260905221054 63 346 0.0 1.0 0.00 0.00 0.00 63 1023.3
20260905220547 63 355 0.0 1.0 0.00 0.00 0.00 62 1023.3
20260905220037 63 360 0.0 1.0 0.00 0.00 0.00 63 1023.2
20260905215550 63 9 0.0 2.0 0.00 0.00 0.00 62 1023.3
20260905215046 64 9 1.0 2.0 0.00 0.00 0.00 62 1023.3
20260905214539 64 5 0.0 1.0 0.00 0.00 0.00 62 1023.3
20260905214032 64 350 0.0 1.0 0.00 0.00 0.00 61 1023.3
20260905213531 64 350 0.0 1.0 0.00 0.00 0.00 61 1023.3
20260905213046 65 350 0.0 1.0 0.00 0.00 0.00 61 1023.4
20260905212543 65 350 0.0 1.0 0.00 0.00 0.00 60 1023.3
20260905212036 65 355 0.0 0.0 0.00 0.00 0.00 59 1023.4
20260905211548 65 355 0.0 1.0 0.00 0.00 0.00 60 1023.2
20260905211038 65 355 0.0 1.0 0.00 0.00 0.00 60 1023.3
20260905210549 65 355 0.0 1.0 0.00 0.00 0.00 59 1023.2
20260905210039 65 350 1.0 1.0 0.00 0.00 0.00 59 1023.2
20260905205534 66 351 0.0 1.0 0.00 0.00 0.00 59 1023.2
20260905205055 66 355 0.0 1.0 0.00 0.00 0.00 59 1023.1
20260905204529 66 355 0.0 1.0 0.00 0.00 0.00 58 1023.1
20260905204055 66 355 0.0 1.0 0.00 0.00 0.00 57 1023.0
20260905203530 66 349 0.0 1.0 0.00 0.00 0.00 58 1023.0
20260905203038 66 348 0.0 0.0 0.00 0.00 0.00 58 1023.0
20260905202532 66 348 0.0 1.0 0.00 0.00 0.00 57 1023.0
20260905202029 67 349 0.0 1.0 0.00 0.00 0.00 57 1023.0
20260905201541 67 342 0.0 1.0 0.00 0.00 0.00 55 1023.0
20260905201032 67 14 0.0 1.0 0.00 0.00 0.00 54 1023.0
20260905200551 67 14 0.0 1.0 0.00 0.00 0.00 54 1023.0
20260905200041 68 17 0.0 1.0 0.00 0.00 0.00 54 1022.9
20260905195600 68 19 0.0 1.0 0.00 0.00 0.00 52 1023.0
20260905195034 68 51 0.0 2.0 0.00 0.00 0.00 52 1022.9
20260905194532 69 51 0.0 2.0 0.00 0.00 0.00 51 1022.9
20260905194027 69 347 0.0 1.0 0.00 0.00 0.00 51 1022.9
20260905193528 70 349 0.0 1.0 0.00 0.00 0.00 52 1022.9
20260905193045 70 347 0.0 2.0 0.00 0.00 0.00 51 1022.8
20260905192540 70 346 1.0 2.0 0.00 0.00 0.00 49 1022.7
20260905192035 70 342 0.0 2.0 0.00 0.00 0.00 49 1022.6
20260905191529 71 347 1.0 2.0 0.00 0.00 0.00 49 1022.7
20260905191046 71 351 0.0 3.0 0.00 0.00 0.00 48 1022.7
20260905190537 71 342 1.0 3.0 0.00 0.00 0.00 48 1022.7
20260905190030 72 360 1.0 2.0 0.00 0.00 0.00 47 1022.6
20260905185544 72 360 1.0 2.0 0.00 0.00 0.00 47 1022.5
20260905185041 72 355 1.0 2.0 0.00 0.00 0.00 47 1022.5
20260905184541 73 355 1.0 1.0 0.00 0.00 0.00 46 1022.4
20260905184039 73 360 0.0 2.0 0.00 0.00 0.00 46 1022.4
20260905183533 73 9 1.0 3.0 0.00 0.00 0.00 45 1022.4
20260905183031 74 16 1.0 3.0 0.00 0.00 0.00 45 1022.4
20260905182606 74 5 2.0 3.0 0.00 0.00 0.00 45 1022.4
20260905182043 75 9 1.0 3.0 0.00 0.00 0.00 45 1022.5
20260905181542 75 16 1.0 3.0 0.00 0.00 0.00 45 1022.4
20260905181036 75 11 1.0 4.0 0.00 0.00 0.00 44 1022.4
20260905180549 76 11 2.0 4.0 0.00 0.00 0.00 44 1022.5
20260905180039 76 22 2.0 5.0 0.00 0.00 0.00 43 1022.5
20260905175531 76 360 2.0 5.0 0.00 0.00 0.00 43 1022.5
20260905175029 76 5 2.0 6.0 0.00 0.00 0.00 43 1022.5
20260905174542 77 17 4.0 6.0 0.00 0.00 0.00 42 1022.4
20260905174036 77 5 3.0 8.0 0.00 0.00 0.00 42 1022.4
20260905173529 77 355 3.0 8.0 0.00 0.00 0.00 42 1022.4
20260905173052 77 5 3.0 6.0 0.00 0.00 0.00 42 1022.5
20260905172543 78 5 2.0 6.0 0.00 0.00 0.00 42 1022.4
20260905172034 78 338 3.0 5.0 0.00 0.00 0.00 41 1022.4
20260905171553 78 40 2.0 5.0 0.00 0.00 0.00 42 1022.4
20260905171032 78 5 2.0 6.0 0.00 0.00 0.00 41 1022.4
20260905170545 79 331 3.0 10.0 0.00 0.00 0.00 40 1022.4
20260905170041 79 346 4.0 10.0 0.00 0.00 0.00 39 1022.4
20260905165535 79 348 3.0 7.0 0.00 0.00 0.00 40 1022.4
20260905165050 80 360 2.0 8.0 0.00 0.00 0.00 39 1022.4
20260905164530 80 337 4.0 8.0 0.00 0.00 0.00 39 1022.3
20260905164058 80 23 1.0 8.0 0.00 0.00 0.00 39 1022.3
20260905163600 80 360 2.0 8.0 0.00 0.00 0.00 39 1022.1
20260905163036 80 360 4.0 10.0 0.00 0.00 0.00 40 1022.2
20260905162532 79 360 5.0 10.0 0.00 0.00 0.00 40 1022.3
20260905162027 80 5 4.0 9.0 0.00 0.00 0.00 39 1022.3
20260905161539 80 9 5.0 9.0 0.00 0.00 0.00 39 1022.4
20260905161028 80 338 2.0 9.0 0.00 0.00 0.00 39 1022.3
20260905160549 80 53 0.0 10.0 0.00 0.00 0.00 42 1022.3
20260905160036 80 351 6.0 10.0 0.00 0.00 0.00 39 1022.3
20260905155547 80 42 5.0 8.0 0.00 0.00 0.00 39 1022.3
20260905155036 80 16 1.0 10.0 0.00 0.00 0.00 40 1022.3
20260905154546 80 325 2.0 12.0 0.00 0.00 0.00 39 1022.4
20260905154039 81 360 5.0 12.0 0.00 0.00 0.00 39 1022.3
20260905153533 82 342 3.0 10.0 0.00 0.00 0.00 38 1022.3
20260905153026 82 319 3.0 10.0 0.00 0.00 0.00 40 1022.4
20260905152542 81 313 3.0 6.0 0.00 0.00 0.00 39 1022.3
20260905152032 81 14 2.0 5.0 0.00 0.00 0.00 41 1022.4
20260905151554 81 5 1.0 8.0 0.00 0.00 0.00 40 1022.4
20260905151027 81 348 3.0 11.0 0.00 0.00 0.00 41 1022.6
20260905150535 81 5 4.0 11.0 0.00 0.00 0.00 40 1022.6
20260905150040 81 329 1.0 9.0 0.00 0.00 0.00 41 1022.6
20260905145557 81 5 2.0 9.0 0.00 0.00 0.00 41 1022.6
20260905145027 81 335 2.0 6.0 0.00 0.00 0.00 41 1022.6
20260905144547 82 25 2.0 10.0 0.00 0.00 0.00 41 1022.6
20260905144042 82 190 1.0 10.0 0.00 0.00 0.00 42 1022.7
20260905143531 81 360 5.0 10.0 0.00 0.00 0.00 41 1022.7
20260905143031 81 307 2.0 9.0 0.00 0.00 0.00 42 1022.7
20260905142545 81 5 3.0 9.0 0.00 0.00 0.00 43 1022.7
20260905142042 80 313 2.0 6.0 0.00 0.00 0.00 43 1022.7
20260905141539 80 49 2.0 9.0 0.00 0.00 0.00 43 1022.8
20260905141036 80 5 4.0 9.0 0.00 0.00 0.00 43 1022.9
20260905140614 80 47 3.0 9.0 0.00 0.00 0.00 44 1022.9
20260905140042 80 344 2.0 9.0 0.00 0.00 0.00 43 1022.9
20260905135533 80 320 4.0 9.0 0.00 0.00 0.00 43 1022.9
20260905135055 80 355 4.0 9.0 0.00 0.00 0.00 44 1023.0
20260905134529 81 38 0.0 9.0 0.00 0.00 0.00 42 1022.9
20260905134054 80 308 2.0 9.0 0.00 0.00 0.00 44 1023.0
20260905133554 80 9 5.0 9.0 0.00 0.00 0.00 44 1023.0
20260905133042 79 333 2.0 8.0 0.00 0.00 0.00 45 1023.0
20260905132537 80 344 3.0 6.0 0.00 0.00 0.00 44 1022.9
20260905132030 80 60 3.0 8.0 0.00 0.00 0.00 44 1023.0
20260905131607 80 323 2.0 8.0 0.00 0.00 0.00 45 1023.0
20260905131038 79 321 2.0 9.0 0.00 0.00 0.00 45 1023.0
20260905130550 79 71 2.0 8.0 0.00 0.00 0.00 46 1023.0
20260905130035 79 46 3.0 6.0 0.00 0.00 0.00 46 1023.0
20260905125545 79 9 2.0 7.0 0.00 0.00 0.00 46 1023.1
20260905125050 78 32 4.0 9.0 0.00 0.00 0.00 47 1023.2
20260905124540 78 337 4.0 11.0 0.00 0.00 0.00 47 1023.1
20260905124027 78 329 4.0 11.0 0.00 0.00 0.00 47 1023.1
20260905123542 78 26 3.0 8.0 0.00 0.00 0.00 46 1023.1
20260905123034 79 342 2.0 8.0 0.00 0.00 0.00 46 1023.2
20260905122528 79 197 3.0 8.0 0.00 0.00 0.00 46 1023.2
20260905122029 79 19 2.0 8.0 0.00 0.00 0.00 47 1023.2
20260905121551 78 213 3.0 9.0 0.00 0.00 0.00 48 1023.2
20260905121027 78 346 5.0 9.0 0.00 0.00 0.00 48 1023.2
20260905120551 78 50 1.0 8.0 0.00 0.00 0.00 49 1023.2
20260905120043 77 327 1.0 9.0 0.00 0.00 0.00 48 1023.3
20260905115536 77 13 4.0 9.0 0.00 0.00 0.00 49 1023.3
20260905115101 77 300 3.0 11.0 0.00 0.00 0.00 50 1023.3
20260905114558 77 355 2.0 9.0 0.00 0.00 0.00 51 1023.4
20260905114106 77 191 1.0 8.0 0.00 0.00 0.00 51 1023.4
20260905113539 77 167 3.0 8.0 0.00 0.00 0.00 51 1023.5
20260905113035 77 304 3.0 8.0 0.00 0.00 0.00 50 1023.5
20260905112530 76 318 4.0 8.0 0.00 0.00 0.00 51 1023.5
20260905112031 76 328 2.0 8.0 0.00 0.00 0.00 53 1023.5
20260905111545 75 42 1.0 5.0 0.00 0.00 0.00 52 1023.6
20260905111037 76 11 1.0 2.0 0.00 0.00 0.00 52 1023.6
20260905110618 76 329 1.0 8.0 0.00 0.00 0.00 51 1023.6
20260905110050 75 272 2.0 8.0 0.00 0.00 0.00 53 1023.6
20260905105541 74 325 3.0 9.0 0.00 0.00 0.00 57 1023.7
20260905105028 73 360 3.0 9.0 0.00 0.00 0.00 56 1023.7
20260905104540 73 320 4.0 9.0 0.00 0.00 0.00 57 1023.6
20260905104033 73 50 4.0 8.0 0.00 0.00 0.00 58 1023.7
20260905103531 73 33 3.0 9.0 0.00 0.00 0.00 58 1023.6
20260905103043 73 355 2.0 10.0 0.00 0.00 0.00 58 1023.6
20260905102543 73 351 6.0 10.0 0.00 0.00 0.00 59 1023.6
20260905102055 74 32 2.0 8.0 0.00 0.00 0.00 58 1023.6
20260905101555 73 325 1.0 7.0 0.00 0.00 0.00 59 1023.5
20260905101027 72 327 2.0 10.0 0.00 0.00 0.00 61 1023.5
20260905100539 72 33 5.0 10.0 0.00 0.00 0.00 61 1023.4
20260905100030 72 360 4.0 9.0 0.00 0.00 0.00 61 1023.4
20260905095543 72 46 4.0 9.0 0.00 0.00 0.00 62 1023.4
20260905095039 71 355 2.0 9.0 0.00 0.00 0.00 62 1023.4
20260905094534 71 44 5.0 10.0 0.00 0.00 0.00 63 1023.5
20260905094028 72 348 4.0 10.0 0.00 0.00 0.00 62 1023.4
20260905093540 72 336 4.0 9.0 0.00 0.00 0.00 64 1023.4
20260905093039 72 9 3.0 9.0 0.00 0.00 0.00 61 1023.4
20260905092558 72 328 2.0 8.0 0.00 0.00 0.00 62 1023.4
20260905092031 71 17 4.0 8.0 0.00 0.00 0.00 63 1023.3
20260905091607 71 323 4.0 9.0 0.00 0.00 0.00 64 1023.3
20260905091028 70 5 4.0 9.0 0.00 0.00 0.00 64 1023.3
20260905090545 70 343 3.0 8.0 0.00 0.00 0.00 66 1023.3
20260905090037 70 20 3.0 8.0 0.00 0.00 0.00 66 1023.2
20260905085529 70 332 5.0 9.0 0.00 0.00 0.00 66 1023.3
20260905085037 69 324 4.0 9.0 0.00 0.00 0.00 67 1023.2
20260905084546 69 34 4.0 10.0 0.00 0.00 0.00 70 1023.2
20260905084040 69 30 4.0 9.0 0.00 0.00 0.00 68 1023.2
20260905083558 69 5 4.0 9.0 0.00 0.00 0.00 68 1023.3
20260905083028 69 334 4.0 8.0 0.00 0.00 0.00 70 1023.3
20260905082607 68 360 3.0 8.0 0.00 0.00 0.00 71 1023.2
20260905082039 68 16 2.0 9.0 0.00 0.00 0.00 71 1023.2
20260905081531 68 24 4.0 9.0 0.00 0.00 0.00 72 1023.1
20260905081044 68 360 4.0 9.0 0.00 0.00 0.00 71 1023.0
20260905080537 67 33 4.0 10.0 0.00 0.00 0.00 73 1023.0
20260905080039 67 5 3.0 10.0 0.00 0.00 0.00 74 1023.0
20260905075557 67 23 3.0 11.0 0.00 0.00 0.00 74 1023.0
20260905075032 67 360 6.0 10.0 0.00 0.00 0.00 74 1022.9
20260905074541 67 5 4.0 12.0 0.00 0.00 0.00 74 1022.9
20260905074029 66 9 3.0 12.0 0.00 0.00 0.00 76 1022.9
20260905073540 66 10 6.0 9.0 0.00 0.00 0.00 76 1022.9
20260905073032 66 15 4.0 8.0 0.00 0.00 0.00 76 1022.8
20260905072543 66 355 4.0 8.0 0.00 0.00 0.00 76 1022.7
20260905072034 66 18 4.0 8.0 0.00 0.00 0.00 76 1022.7
20260905071530 66 346 3.0 8.0 0.00 0.00 0.00 77 1022.6
20260905071041 66 355 3.0 8.0 0.00 0.00 0.00 78 1022.5
20260905070557 66 355 2.0 6.0 0.00 0.00 0.00 79 1022.5
20260905070045 65 355 2.0 6.0 0.00 0.00 0.00 79 1022.4
20260905065537 65 339 2.0 9.0 0.00 0.00 0.00 80 1022.4
20260905065033 65 24 4.0 8.0 0.00 0.00 0.00 80 1022.5
20260905064548 65 329 3.0 6.0 0.00 0.00 0.00 80 1022.5
20260905064031 64 13 2.0 6.0 0.00 0.00 0.00 80 1022.4
20260905063543 64 11 2.0 6.0 0.00 0.00 0.00 80 1022.4
20260905063037 64 355 3.0 6.0 0.00 0.00 0.00 80 1022.3
20260905062530 64 300 1.0 10.0 0.00 0.00 0.00 80 1022.3
20260905062027 64 348 3.0 8.0 0.00 0.00 0.00 80 1022.3
20260905061606 64 5 2.0 6.0 0.00 0.00 0.00 80 1022.2
20260905061036 64 348 2.0 6.0 0.00 0.00 0.00 80 1022.2
20260905060546 64 346 1.0 11.0 0.00 0.00 0.00 80 1022.1
20260905060041 64 355 4.0 11.0 0.00 0.00 0.00 80 1022.1
20260905055533 64 338 3.0 8.0 0.00 0.00 0.00 80 1022.0
20260905055029 64 335 3.0 11.0 0.00 0.00 0.00 80 1022.0
20260905054545 64 360 4.0 11.0 0.00 0.00 0.00 80 1021.9
20260905054033 64 309 4.0 8.0 0.00 0.00 0.00 80 1021.8
20260905053536 64 334 3.0 9.0 0.00 0.00 0.00 81 1021.8
20260905053031 64 355 4.0 8.0 0.00 0.00 0.00 81 1021.7
20260905052531 64 344 3.0 9.0 0.00 0.00 0.00 81 1021.6
20260905052045 64 337 4.0 8.0 0.00 0.00 0.00 81 1021.5
20260905051544 65 319 2.0 9.0 0.00 0.00 0.00 81 1021.4
20260905051038 65 344 4.0 9.0 0.00 0.00 0.00 81 1021.4
20260905050550 65 331 3.0 9.0 0.00 0.00 0.00 82 1021.2
20260905050034 65 355 3.0 9.0 0.00 0.00 0.00 82 1021.2
20260905045543 65 337 3.0 8.0 0.00 0.00 0.00 82 1021.2
20260905045044 65 9 4.0 8.0 0.00 0.00 0.00 82 1021.1
20260905044541 65 5 3.0 6.0 0.00 0.00 0.00 82 1021.1
20260905044037 65 340 3.0 6.0 0.00 0.00 0.00 82 1021.1
20260905043532 65 5 3.0 8.0 0.00 0.00 0.00 82 1021.0
20260905043103 65 326 4.0 9.0 0.00 0.00 0.00 82 1021.0
20260905042536 65 324 4.0 9.0 0.00 0.00 0.00 84 1020.9
20260905042046 65 336 4.0 9.0 0.00 0.00 0.00 85 1020.9
20260905041544 65 329 4.0 9.0 0.00 0.00 0.00 87 1021.0
20260905041041 65 327 2.0 6.0 0.00 0.00 0.00 88 1021.0
20260905040534 65 9 3.0 6.0 0.00 0.00 0.00 88 1020.9
20260905040030 65 338 3.0 6.0 0.00 0.00 0.00 88 1020.8
20260905035609 65 342 2.0 4.0 0.00 0.00 0.00 88 1020.8
20260905035029 65 335 1.0 4.0 0.00 0.00 0.00 88 1020.8
20260905034604 65 305 2.0 4.0 0.00 0.00 0.00 88 1020.7
20260905034040 65 355 1.0 4.0 0.00 0.00 0.00 88 1020.7
20260905033557 65 341 2.0 4.0 0.00 0.00 0.00 88 1020.6
20260905033105 65 331 1.0 2.0 0.00 0.00 0.00 88 1020.6
20260905032535 66 332 1.0 4.0 0.00 0.00 0.00 87 1020.6
20260905032032 66 360 2.0 4.0 0.00 0.00 0.00 87 1020.6
20260905031540 66 351 2.0 4.0 0.00 0.00 0.00 86 1020.5
20260905031037 66 22 1.0 4.0 0.00 0.00 0.00 86 1020.5
20260905030528 66 329 1.0 4.0 0.00 0.00 0.00 85 1020.4
20260905030055 66 5 2.0 8.0 0.00 0.00 0.00 85 1020.4
20260905025529 66 339 4.0 8.0 0.00 0.00 0.00 84 1020.4
20260905025043 66 342 3.0 8.0 0.00 0.00 0.00 84 1020.3
20260905024543 67 355 2.0 5.0 0.00 0.00 0.00 83 1020.4
20260905024040 67 333 1.0 6.0 0.00 0.00 0.00 82 1020.3
20260905023558 67 19 2.0 6.0 0.00 0.00 0.00 82 1020.2
20260905023030 67 5 1.0 8.0 0.00 0.00 0.00 82 1020.2
20260905022542 67 331 4.0 8.0 0.00 0.00 0.00 82 1020.2
20260905022046 67 350 2.0 6.0 0.00 0.00 0.00 81 1019.9
20260905021541 67 5 3.0 8.0 0.00 0.00 0.00 81 1019.9
20260905021028 67 328 1.0 8.0 0.00 0.00 0.00 81 1019.7
20260905020538 67 5 2.0 8.0 0.00 0.00 0.00 81 1019.7
20260905020032 67 19 3.0 8.0 0.00 0.00 0.00 81 1019.8
20260905015545 67 339 2.0 5.0 0.00 0.00 0.00 82 1019.6
20260905015042 67 5 2.0 6.0 0.00 0.00 0.00 82 1019.8
20260905014540 67 9 2.0 8.0 0.00 0.00 0.00 81 1019.6
20260905014027 67 17 3.0 10.0 0.00 0.00 0.00 81 1019.6
20260905013604 68 13 5.0 10.0 0.00 0.00 0.00 82 1019.6
20260905013037 68 339 6.0 10.0 0.00 0.00 0.00 82 1019.6
20260905012533 68 17 6.0 10.0 0.00 0.00 0.00 83 1019.6
20260905012044 68 355 7.0 10.0 0.00 0.00 0.00 83 1019.5
20260905011542 68 16 4.0 9.0 0.00 0.00 0.00 84 1019.4
20260905011029 68 349 1.0 4.0 0.00 0.00 0.00 85 1019.3
20260905010540 68 323 1.0 3.0 0.00 0.00 0.00 85 1019.3
20260905010033 68 11 2.0 5.0 0.00 0.00 0.00 85 1019.3
20260905005545 68 350 1.0 5.0 0.00 0.00 0.00 84 1019.2
20260905005042 68 360 2.0 5.0 0.00 0.00 0.00 84 1019.3
20260905004601 68 350 1.0 5.0 0.00 0.00 0.00 84 1019.3
20260905004035 68 329 2.0 5.0 0.00 0.00 0.00 84 1019.4
20260905003543 69 360 3.0 5.0 0.00 0.00 0.00 84 1019.3
20260905003036 69 342 2.0 6.0 0.00 0.00 0.00 84 1019.3
20260905002547 69 360 4.0 6.0 0.00 0.00 0.00 84 1019.2
20260905002044 69 344 3.0 6.0 0.00 0.00 0.00 83 1019.2
20260905001602 69 5 3.0 6.0 0.00 0.00 0.00 83 1019.1
20260905001037 69 19 4.0 8.0 0.00 0.00 0.00 83 1019.0
20260905000528 69 355 3.0 8.0 0.00 0.00 0.00 82 1019.1
20260905000044 69 13 2.0 10.0 0.00 0.00 0.00 82 1019.2
20260904235548 69 355 3.0 10.0 0.00 0.00 0.00 82 1019.2
20260904235032 69 30 3.0 9.0 0.00 0.00 0.00 82 1019.0